Tracking 31027 objects as of 19-Jul-2025
HD Live streaming from Space Station
objects crossing your sky now

COSMOS 2251 DEB

Track COSMOS 2251 DEB now!
10-day predictions


NORAD ID: 34035
Int'l Code: 1993-036HW
Perigee: 699.8 km
Apogee: 766.3 km
Inclination: 74.1 °
Period: 99.3 minutes
Semi major axis: 7104 km
RCS: 0.0156 m2 (small)
Launch date: June 16, 1993
Source: Commonwealth of Independent States (former USSR) (CIS)
Launch site: PLESETSK MISSILE AND SPACE COMPLEX (PKMTR)

Note: This is SATELLITE DEBRIS
Your satellite tracking list
THORAD DELTA 1 DEB
Track 1 satellite(s)




NASA's NSSDC Master Catalog

Two Line Element Set (TLE):
1 34035U 93036HW  25199.24110119  .00002368  00000-0  61116-3 0  9998
2 34035  74.0646 265.9823 0046816 312.2403 104.1244 14.49919122858424
Source of the keplerian elements: AFSPC